Weather History for Harrisburg, IL

Change the Weather History Date:

Saturday, November 3, 2012

  Actual Average (KMWA) Record (KMWA)
Temperature  
Mean Temperature 52 °F -  
Max Temperature 62 °F 61 °F 82 °F (1987)
Min Temperature 41 °F 40 °F 17 °F (1991)
Degree Days  
Heating Degree Days 14    
Growing Degree Days 2 (Base 50)    
Moisture  
Dew Point 36 °F    
Average Humidity 63    
Maximum Humidity 87    
Minimum Humidity 37    
Precipitation  
Precipitation 0.00 in - - ()
Sea Level Pressure  
Sea Level Pressure 30.05 in    
Wind  
Wind Speed 7 mph (ENE)    
Max Wind Speed 17 mph    
Max Gust Speed 22 mph    
Visibility 8 miles    
Events      
Averages and records for this station are not official NWS values.
T = Trace of Precipitation, MM = Missing Value Source: NWS Daily Summary

Daily Weather History Graph

Daily Weather History Graph

Search for Another Location

Airport:

Trip Planner

Search our weather history database for the weather conditions in past years. The results will help you decide how hot, cold, wet, or windy it might be!

Date:

Astronomy

Nov. 03, 2012 Rise Set
Actual Time 7:22 AM CDT 5:52 PM CDT
Civil Twilight 6:54 AM CDT 6:20 PM CDT
Nautical Twilight 6:23 AM CDT 6:51 PM CDT
Astronomical Twilight 5:53 AM CDT 7:21 PM CDT
Moon 9:35 PM CDT (11/3) 11:24 AM CDT (11/3)
Length of Visible Light 11h 25m
Length of Day
10h 30m
Waning Gibbous, 80% of the Moon is Illuminated
Nov 3
Waning Gibbous
Nov 6
Last Quarter
Nov 13
New
Nov 20
First Quarter
Nov 28
Full

Hourly Weather History & Observations

Time (CDT) Temp. Windchill Dew Point Humidity Pressure Visibility Wind Dir Wind Speed Gust Speed Precip Events Conditions
12:15 AM 44.6 °F 41.4 °F 33.8 °F 66% 30.07 in 3.0 mi ENE 5.8 mph - N/A   Haze
12:35 AM 44.6 °F 41.4 °F 33.8 °F 66% 30.07 in 2.0 mi East 5.8 mph - N/A   Haze
12:55 AM 44.6 °F - 33.8 °F 66% 30.08 in 2.0 mi Calm Calm - N/A   Haze
1:15 AM 44.6 °F 42.2 °F 33.8 °F 66% 30.08 in 3.0 mi ENE 4.6 mph - N/A   Haze
1:35 AM 44.6 °F 40.7 °F 33.8 °F 66% 30.07 in 3.0 mi ENE 6.9 mph - N/A   Haze
1:55 AM 44.6 °F 42.2 °F 33.8 °F 66% 30.06 in 2.5 mi ENE 4.6 mph - N/A   Haze
2:15 AM 42.8 °F 39.3 °F 33.8 °F 70% 30.06 in 1.2 mi East 5.8 mph - N/A   Haze
2:35 AM 42.8 °F 40.1 °F 33.8 °F 70% 30.05 in 2.5 mi ESE 4.6 mph - N/A   Haze
2:55 AM 42.8 °F 40.1 °F 33.8 °F 70% 30.05 in 1.5 mi ESE 4.6 mph - N/A   Haze
3:15 AM 42.8 °F 39.3 °F 33.8 °F 70% 30.04 in 2.5 mi East 5.8 mph - N/A   Haze
3:35 AM 42.8 °F 39.3 °F 35.6 °F 76% 30.04 in 2.5 mi East 5.8 mph - N/A   Haze
3:55 AM 42.8 °F 38.6 °F 35.6 °F 76% 30.04 in 5.0 mi East 6.9 mph - N/A   Haze
4:15 AM 42.8 °F 39.3 °F 35.6 °F 76% 30.04 in 4.0 mi East 5.8 mph - N/A   Haze
4:35 AM 42.8 °F 38.6 °F 35.6 °F 76% 30.04 in 5.0 mi East 6.9 mph - N/A   Haze
4:55 AM 42.8 °F 38.0 °F 35.6 °F 76% 30.03 in 10.0 mi East 8.1 mph - N/A   Scattered Clouds
5:15 AM 42.8 °F 38.6 °F 35.6 °F 76% 30.04 in 10.0 mi East 6.9 mph - N/A   Scattered Clouds
5:35 AM 42.8 °F 38.6 °F 35.6 °F 76% 30.04 in 10.0 mi East 6.9 mph - N/A   Clear
5:55 AM 42.8 °F 39.3 °F 35.6 °F 76% 30.05 in 4.0 mi East 5.8 mph - N/A   Haze
6:15 AM 42.8 °F 38.6 °F 35.6 °F 76% 30.05 in 4.0 mi ENE 6.9 mph - N/A   Haze
6:35 AM 42.8 °F 38.6 °F 33.8 °F 70% 30.06 in 2.5 mi ENE 6.9 mph - N/A   Haze
6:55 AM 42.8 °F 38.0 °F 33.8 °F 70% 30.06 in 4.0 mi East 8.1 mph - N/A   Haze
7:15 AM 42.8 °F 38.0 °F 33.8 °F 70% 30.06 in 4.0 mi ENE 8.1 mph - N/A   Haze
7:35 AM 44.6 °F 39.7 °F 33.8 °F 66% 30.06 in 7.0 mi East 9.2 mph - N/A   Mostly Cloudy
7:55 AM 44.6 °F 39.2 °F 33.8 °F 66% 30.07 in 10.0 mi East 10.4 mph - N/A   Mostly Cloudy
8:15 AM 44.6 °F 38.4 °F 33.8 °F 66% 30.06 in 10.0 mi East 12.7 mph 16.1 mph N/A   Light Drizzle
8:35 AM 44.6 °F 39.2 °F 33.8 °F 66% 30.06 in 10.0 mi East 10.4 mph - N/A   Scattered Clouds
8:55 AM 44.6 °F 39.7 °F 33.8 °F 66% 30.06 in 10.0 mi East 9.2 mph - N/A   Scattered Clouds
9:15 AM 46.4 °F 41.9 °F 35.6 °F 66% 30.06 in 10.0 mi East 9.2 mph - N/A   Clear
9:35 AM 50.0 °F - 35.6 °F 58% 30.05 in 10.0 mi East 12.7 mph - N/A   Clear
9:55 AM 50.0 °F - 35.6 °F 58% 30.04 in 10.0 mi ESE 12.7 mph - N/A   Scattered Clouds
10:15 AM 51.8 °F - 35.6 °F 54% 30.03 in 10.0 mi ESE 17.3 mph 20.7 mph N/A   Scattered Clouds
10:35 AM 51.8 °F - 33.8 °F 50% 30.02 in 10.0 mi ESE 13.8 mph - N/A   Scattered Clouds
10:55 AM 53.6 °F - 33.8 °F 47% 30.02 in 10.0 mi ESE 12.7 mph - N/A   Scattered Clouds
11:15 AM 55.4 °F - 35.6 °F 47% 30.01 in 10.0 mi ESE 10.4 mph - N/A   Clear
11:35 AM 55.4 °F - 35.6 °F 47% 30.01 in 10.0 mi East 10.4 mph - N/A   Scattered Clouds
11:55 AM 57.2 °F - 35.6 °F 44% 30.00 in 10.0 mi East 12.7 mph - N/A   Scattered Clouds
12:15 PM 59.0 °F - 35.6 °F 42% 29.99 in 10.0 mi ESE 10.4 mph - N/A   Clear
12:35 PM 59.0 °F - 35.6 °F 42% 29.98 in 10.0 mi ESE 9.2 mph 16.1 mph N/A   Clear
12:55 PM 60.8 °F - 35.6 °F 39% 29.98 in 10.0 mi ESE 9.2 mph 16.1 mph N/A   Clear
1:15 PM 60.8 °F - 35.6 °F 39% 29.97 in 10.0 mi East 9.2 mph - N/A   Clear
1:35 PM 62.6 °F - 35.6 °F 37% 29.98 in 10.0 mi East 5.8 mph - N/A   Clear
1:55 PM 62.6 °F - 37.4 °F 39% 29.97 in 10.0 mi East 5.8 mph - N/A   Mostly Cloudy
2:15 PM 60.8 °F - 37.4 °F 42% 29.97 in 10.0 mi NNE 4.6 mph - N/A   Overcast
2:35 PM 60.8 °F - 37.4 °F 42% 29.98 in 10.0 mi NE 5.8 mph - N/A   Overcast
2:55 PM 60.8 °F - 37.4 °F 42% 29.98 in 10.0 mi NNE 5.8 mph - N/A   Overcast
3:15 PM 60.8 °F - 37.4 °F 42% 29.99 in 10.0 mi North 6.9 mph - N/A   Overcast
3:35 PM 59.0 °F - 37.4 °F 45% 29.99 in 10.0 mi NNE 12.7 mph 19.6 mph N/A   Overcast
3:55 PM 55.4 °F - 37.4 °F 51% 30.01 in 10.0 mi NNE 11.5 mph - N/A   Overcast
4:15 PM 55.4 °F - 37.4 °F 51% 30.02 in 10.0 mi NNE 15.0 mph 19.6 mph N/A   Overcast
4:35 PM 51.8 °F - 37.4 °F 58% 30.03 in 10.0 mi NNE 15.0 mph 21.9 mph N/A   Overcast
4:55 PM 50.0 °F - 37.4 °F 62% 30.04 in 10.0 mi NNE 15.0 mph 19.6 mph N/A   Overcast
5:15 PM 50.0 °F - 37.4 °F 62% 30.05 in 10.0 mi NNE 9.2 mph 18.4 mph N/A   Overcast
5:35 PM 50.0 °F - 35.6 °F 58% 30.05 in 10.0 mi North 8.1 mph - N/A   Overcast
5:55 PM 50.0 °F - 35.6 °F 58% 30.06 in 10.0 mi North 5.8 mph - N/A   Overcast
6:15 PM 50.0 °F - 37.4 °F 62% 30.06 in 10.0 mi North 5.8 mph - N/A   Overcast
6:35 PM 50.0 °F - 37.4 °F 62% 30.07 in 10.0 mi North 11.5 mph - N/A   Overcast
6:55 PM 50.0 °F - 35.6 °F 58% 30.08 in 10.0 mi North 9.2 mph - N/A   Overcast
7:15 PM 46.4 °F 41.1 °F 37.4 °F 71% 30.10 in 10.0 mi North 11.5 mph 18.4 mph N/A   Overcast
7:35 PM 46.4 °F 41.9 °F 37.4 °F 71% 30.11 in 10.0 mi North 9.2 mph - N/A   Overcast
7:55 PM 46.4 °F 40.7 °F 37.4 °F 71% 30.11 in 10.0 mi NNE 12.7 mph - N/A   Overcast
8:15 PM 46.4 °F 41.5 °F 37.4 °F 71% 30.11 in 10.0 mi NNE 10.4 mph 16.1 mph N/A   Overcast
8:35 PM 46.4 °F 41.5 °F 37.4 °F 71% 30.11 in 10.0 mi NNE 10.4 mph - N/A   Overcast
8:55 PM 44.6 °F 41.4 °F 37.4 °F 76% 30.12 in 5.0 mi NNE 5.8 mph - N/A   Haze
9:15 PM 44.6 °F 41.4 °F 37.4 °F 76% 30.13 in 10.0 mi NNE 5.8 mph - N/A   Scattered Clouds
9:35 PM 44.6 °F 41.4 °F 37.4 °F 76% 30.15 in 10.0 mi NNE 5.8 mph - N/A   Scattered Clouds
9:55 PM 44.6 °F 40.7 °F 37.4 °F 76% 30.15 in 10.0 mi North 6.9 mph - N/A   Mostly Cloudy
10:15 PM 42.8 °F 38.0 °F 37.4 °F 81% 30.15 in 10.0 mi North 8.1 mph - N/A   Overcast
10:35 PM 42.8 °F 38.6 °F 37.4 °F 81% 30.15 in 10.0 mi NNE 6.9 mph - N/A   Scattered Clouds
10:55 PM 42.8 °F 39.3 °F 37.4 °F 81% 30.15 in 10.0 mi NNE 5.8 mph - N/A   Clear
11:15 PM 41.0 °F 38.0 °F 37.4 °F 87% 30.14 in 10.0 mi North 4.6 mph - N/A   Clear
11:35 PM 41.0 °F 38.0 °F 35.6 °F 81% 30.14 in 10.0 mi North 4.6 mph - N/A   Clear
11:55 PM 41.0 °F 39.0 °F 35.6 °F 81% 30.14 in 10.0 mi North 3.5 mph - N/A   Clear